Vorticity
8 9 9 7 5 8 4 1 3 3 5 -2 0 -2 2 2 -1 1 6 -1 2 -4 -0 2 -1 -5 2 -3 6 2 10 5 9 6 5 5 4 6 6 7 6 5 4
9 9 12 5 3 9 7 3 2 4 1 -0 0 1 -5 -2 3 1 1 2 -0 8 5 -3 2 2 -3 9 4 12 5 4 7 9 6 5 5 5 6 6 12 4 3
11 11 7 5 8 9 4 3 5 2 -1 -2 1 0 4 5 8 6 1 2 7 4 -4 9 13 15 11 6 12 24 25 12 1 11 7 6 5 5 6 3 -6 -19 4
13 7 4 10 5 5 2 -0 -0 -2 -2 -1 3 8 2 8 5 1 4 9 -1 13 20 24 24 20 17 16 32 37 23 18 3 5 10 6 5 7 5 10 33 17 5
10 5 6 7 4 2 3 2 -0 2 2 4 4 4 9 2 7 2 3 14 39 57 48 50 55 55 52 48 40 28 22 16 12 4 8 6 15 9 7 9 -29 -1 4
8 4 8 6 4 2 2 2 2 4 7 7 7 7 -1 5 3 5 43 56 41 36 35 31 27 25 26 30 27 20 12 11 14 7 9 6 -1 -4 9 9 -34 -31 2
5 8 7 4 3 4 3 4 5 4 4 5 6 -1 3 5 25 49 39 34 26 21 21 23 25 25 30 27 20 33 20 5 7 12 12 3 22 -85 46 11 13 36 2
7 8 4 3 5 4 3 2 4 3 8 1 2 2 3 28 47 35 25 26 10 15 20 16 17 22 22 31 27 27 17 21 6 12 12 3 18 -19 26 26 -33 14 -9
9 7 4 4 4 2 3 4 3 9 -0 2 4 9 43 41 32 22 17 23 5 17 17 16 18 21 17 16 27 29 25 31 12 12 6 5 5 -9 -7 4 19 16 10
8 5 3 2 1 3 4 2 8 0 1 4 8 35 31 20 17 19 16 23 -0 20 22 13 16 18 20 16 18 24 30 29 32 2 3 29 18 35 -35 13 34 27 -3
8 3 2 0 2 4 3 3 3 1 1 6 32 30 20 18 17 15 21 19 3 14 21 11 11 16 18 20 17 16 27 34 34 25 10 -7 -26 40 -1 -8 -17 15 5
5 3 2 2 4 4 3 4 1 -0 2 24 30 23 23 28 27 18 19 12 13 3 17 6 15 22 17 19 18 14 21 31 31 25 9 -25 13 9 -1 1 9 18 19
4 4 2 3 5 4 5 5 -0 4 16 36 27 33 33 32 31 28 18 16 11 7 13 -1 7 22 23 31 -0 20 5 20 29 22 22 13 4 -3 39 -11 -35 -17 -11
6 3 3 5 4 5 5 1 3 13 34 30 36 31 30 30 29 32 19 15 7 12 10 13 1 26 25 7 13 -15 -4 20 30 21 22 21 -1 5 22 14 2 -45 -17
3 4 4 6 5 4 1 1 8 33 33 35 25 27 29 29 28 34 19 15 8 12 11 14 1 33 17 -7 8 26 15 19 20 32 18 17 30 22 3 4 37 -27 -9
4 2 6 5 4 4 0 4 30 29 36 18 22 29 31 30 33 33 16 11 6 11 13 9 13 35 32 10 12 13 15 19 14 23 16 41 22 28 11 8 22 -17 -6
2 4 6 4 5 -1 3 23 28 33 23 13 23 29 30 31 36 26 17 6 7 9 16 4 23 37 2 -26 -13 17 31 10 16 -38 44 35 26 22 36 -19 9 52 34
4 8 4 4 1 2 13 30 28 33 15 13 24 27 31 33 40 20 15 3 8 8 13 8 25 29 17 -10 -11 11 14 18 12 -6 -19 25 12 29 24 5 24 -6 41
7 5 3 4 0 12 20 27 30 25 10 13 23 25 31 37 30 19 8 5 10 13 7 8 30 35 9 -2 -3 20 23 5 36 31 -11 66 3 27 44 9 -18 -33 37
7 4 4 1 3 22 20 27 30 15 14 12 20 28 30 42 22 17 3 5 6 15 5 16 43 35 10 12 2 2 9 -14 29 30 -1 22 11 30 33 44 43 30 36
4 3 4 0 16 25 18 27 24 13 20 12 17 26 35 33 22 14 4 6 6 14 6 23 19 20 -3 7 -2 5 10 14 37 7 38 34 -6 53 43 10 -6 40 12
3 4 1 4 24 24 22 23 17 16 20 15 16 24 36 22 23 10 4 4 5 13 6 22 35 14 20 8 5 28 -16 26 3 -7 -5 33 22 14 21 60 17 29 -10
3 4 2 12 25 20 39 15 17 14 15 18 16 22 31 21 22 9 5 2 4 12 7 20 30 5 17 2 3 9 -44 -4 10 11 6 31 -3 16 25 34 34 43 7
3 3 5 20 25 17 44 14 18 3 6 7 20 21 30 21 22 12 6 3 4 4 12 13 30 22 6 18 0 2 25 14 14 22 7 4 10 5 1 54 25 35 37
3 4 12 26 19 13 32 24 7 5 6 6 7 20 25 25 27 16 6 2 3 3 8 8 32 29 -2 17 14 7 18 -43 -26 53 46 19 -13 11 25 -17 -20 25 20
1 7 23 20 14 14 19 35 13 7 9 11 13 11 22 28 26 19 10 5 0 1 0 14 25 25 11 2 15 16 19 2 -11 -14 1 -10 13 -4 -1 19 8 12 5
Height
5753 5748 5745 5742 5739 5736 5734 5731 5727 5723 5719 5715 5711 5706 5702 5697 5692 5688 5685 5681 5676 5671 5671 5671 5672 5673 5675 5678 5687 5695 5701 5704 5708 5714 5719 5723 5728 5732 5737 5743 5747 5751 5755
5743 5739 5736 5732 5729 5725 5722 5718 5714 5710 5705 5700 5694 5688 5683 5676 5670 5663 5658 5654 5649 5647 5643 5639 5636 5633 5640 5649 5655 5667 5677 5684 5690 5697 5703 5709 5715 5720 5726 5732 5734 5739 5745
5733 5729 5725 5722 5718 5713 5709 5704 5699 5693 5688 5682 5676 5670 5662 5654 5645 5637 5629 5624 5619 5614 5608 5605 5604 5603 5601 5605 5618 5631 5647 5659 5668 5677 5685 5693 5701 5708 5714 5719 5719 5724 5733
5722 5718 5714 5709 5704 5699 5694 5688 5681 5675 5668 5661 5654 5644 5634 5624 5612 5603 5595 5584 5578 5570 5560 5556 5554 5558 5565 5570 5578 5597 5612 5631 5643 5655 5666 5675 5685 5693 5699 5706 5701 5705 5721
5710 5705 5700 5694 5689 5683 5677 5670 5663 5654 5646 5639 5630 5622 5612 5600 5585 5573 5561 5547 5533 5519 5511 5509 5508 5510 5518 5530 5543 5562 5579 5598 5616 5631 5645 5658 5669 5677 5683 5692 5697 5694 5707
5697 5692 5686 5681 5674 5667 5659 5652 5644 5635 5625 5616 5608 5598 5586 5571 5553 5540 5524 5507 5496 5488 5483 5482 5482 5485 5492 5500 5513 5530 5549 5567 5587 5606 5623 5637 5651 5657 5669 5679 5679 5682 5693
5684 5678 5672 5666 5659 5651 5643 5634 5626 5616 5603 5589 5579 5572 5559 5538 5519 5508 5493 5482 5473 5468 5465 5466 5464 5467 5473 5479 5490 5503 5519 5539 5559 5580 5600 5616 5625 5628 5643 5645 5656 5668 5679
5671 5665 5658 5651 5643 5636 5627 5617 5606 5595 5582 5565 5549 5534 5526 5523 5493 5483 5472 5465 5457 5454 5454 5451 5450 5454 5458 5465 5473 5483 5496 5513 5533 5554 5575 5593 5602 5611 5621 5637 5647 5656 5667
5659 5653 5646 5639 5630 5621 5611 5599 5585 5571 5560 5543 5520 5497 5482 5476 5466 5466 5457 5451 5442 5440 5441 5442 5440 5442 5444 5450 5457 5466 5478 5492 5511 5530 5551 5569 5584 5598 5609 5622 5631 5642 5655
5648 5641 5634 5625 5615 5604 5593 5579 5564 5549 5531 5518 5497 5472 5457 5446 5440 5445 5442 5439 5431 5428 5428 5430 5431 5431 5433 5437 5443 5452 5462 5474 5493 5511 5530 5548 5564 5578 5594 5611 5615 5630 5642
5636 5628 5620 5610 5599 5588 5575 5560 5544 5526 5506 5485 5466 5450 5439 5429 5422 5414 5423 5423 5420 5417 5417 5419 5421 5421 5423 5427 5432 5441 5451 5463 5480 5494 5512 5529 5547 5560 5579 5593 5605 5616 5626
5624 5615 5605 5595 5584 5571 5557 5540 5523 5505 5482 5459 5438 5424 5412 5404 5400 5396 5398 5404 5405 5407 5407 5409 5410 5411 5413 5418 5425 5433 5443 5454 5466 5481 5498 5514 5531 5545 5560 5573 5591 5606 5616
5610 5601 5591 5580 5568 5554 5538 5520 5502 5481 5457 5433 5414 5398 5387 5379 5375 5376 5380 5387 5390 5395 5397 5398 5400 5402 5404 5411 5418 5427 5436 5445 5455 5470 5484 5499 5514 5532 5545 5562 5578 5591 5603
5597 5587 5577 5564 5550 5535 5518 5500 5480 5456 5432 5410 5391 5377 5367 5361 5358 5359 5365 5371 5378 5383 5387 5388 5390 5393 5397 5406 5413 5421 5427 5438 5449 5459 5472 5486 5503 5521 5534 5548 5562 5579 5589
5584 5573 5561 5549 5534 5517 5500 5480 5458 5433 5412 5390 5375 5361 5352 5346 5344 5347 5353 5359 5367 5374 5378 5378 5383 5385 5391 5399 5407 5415 5424 5432 5442 5453 5465 5479 5492 5507 5522 5537 5551 5568 5581
5570 5559 5546 5532 5517 5500 5482 5460 5436 5414 5394 5377 5362 5349 5340 5335 5335 5338 5344 5352 5360 5365 5370 5370 5375 5378 5385 5393 5402 5411 5419 5428 5438 5450 5463 5476 5487 5500 5514 5527 5543 5558 5570
5557 5545 5531 5518 5502 5484 5464 5441 5419 5399 5383 5368 5353 5341 5332 5328 5328 5332 5339 5347 5354 5359 5364 5363 5367 5373 5381 5389 5397 5408 5416 5426 5433 5443 5461 5473 5481 5494 5506 5523 5538 5549 5561
5543 5530 5517 5503 5487 5468 5447 5425 5406 5389 5376 5361 5347 5334 5326 5323 5324 5329 5337 5344 5349 5354 5359 5360 5361 5369 5376 5385 5395 5406 5413 5422 5432 5439 5448 5457 5474 5484 5498 5515 5529 5540 5548
5529 5517 5504 5489 5471 5452 5432 5412 5395 5383 5370 5357 5343 5331 5322 5320 5322 5329 5336 5342 5346 5350 5354 5356 5357 5364 5374 5384 5392 5403 5413 5424 5431 5438 5443 5453 5467 5475 5489 5504 5518 5534 5538
5516 5504 5490 5474 5457 5438 5419 5403 5389 5378 5365 5353 5340 5329 5322 5320 5323 5330 5336 5341 5345 5348 5351 5352 5355 5363 5374 5383 5392 5400 5412 5422 5431 5437 5444 5451 5460 5469 5482 5496 5512 5524 5534
5504 5491 5477 5461 5444 5424 5407 5395 5384 5372 5361 5350 5339 5330 5323 5322 5326 5332 5337 5341 5344 5346 5349 5351 5355 5363 5374 5383 5391 5400 5411 5421 5426 5436 5443 5449 5456 5464 5476 5493 5504 5516 5529
5491 5478 5464 5450 5432 5415 5398 5386 5377 5367 5357 5348 5339 5331 5326 5326 5328 5333 5338 5342 5344 5345 5347 5350 5354 5363 5373 5382 5389 5400 5407 5417 5424 5432 5441 5447 5454 5462 5471 5485 5502 5512 5523
5479 5465 5452 5438 5421 5406 5392 5379 5372 5364 5355 5347 5339 5333 5328 5327 5330 5334 5338 5342 5344 5346 5347 5349 5353 5361 5371 5380 5387 5395 5406 5417 5423 5432 5438 5446 5454 5460 5471 5482 5497 5508 5520
5466 5453 5441 5426 5411 5398 5388 5376 5368 5361 5354 5346 5339 5333 5329 5328 5330 5333 5337 5341 5344 5346 5347 5349 5354 5361 5369 5378 5388 5395 5406 5416 5421 5430 5437 5444 5451 5458 5471 5481 5492 5502 5516
5454 5441 5427 5414 5402 5390 5382 5373 5366 5359 5352 5345 5339 5333 5329 5327 5328 5331 5335 5339 5343 5346 5348 5350 5353 5360 5368 5377 5386 5393 5404 5410 5421 5429 5434 5441 5449 5460 5470 5481 5490 5503 5511
5444 5431 5415 5404 5393 5384 5374 5368 5362 5356 5349 5342 5337 5332 5328 5325 5325 5328 5332 5336 5341 5345 5348 5351 5353 5359 5366 5375 5384 5392 5401 5409 5419 5427 5433 5440 5448 5459 5469 5478 5489 5501 5510